QPF
0.00 0.00 0.00 0.00 0.00 0.00 0.00 0.00 0.00 0.00 0.00 0.00 0.00 0.00 0.00 0.00 0.00 0.00 0.00 0.00 0.01 0.02 0.02 0.01 0.00 0.00 0.00 0.01 0.01 0.04 0.00 0.00 0.00
0.00 0.00 0.00 0.00 0.00 0.00 0.00 0.00 0.00 0.00 0.00 0.00 0.00 0.00 0.00 0.00 0.00 0.00 0.00 0.00 0.00 0.01 0.03 0.05 0.03 0.01 0.02 0.01 0.01 0.01 0.00 0.00 0.00
0.00 0.00 0.00 0.00 0.00 0.00 0.00 0.00 0.00 0.00 0.00 0.00 0.00 0.00 0.00 0.00 0.00 0.01 0.01 0.00 0.00 0.00 0.00 0.00 0.00 0.00 0.01 0.00 0.00 0.00 0.00 0.00 0.00
0.00 0.00 0.00 0.00 0.00 0.00 0.01 0.00 0.00 0.00 0.00 0.00 0.00 0.00 0.00 0.00 0.00 0.00 0.00 0.00 0.00 0.00 0.00 0.00 0.00 0.00 0.00 0.00 0.00 0.00 0.00 0.00 0.00
0.00 0.00 0.00 0.00 0.00 0.01 0.01 0.00 0.00 0.00 0.00 0.00 0.00 0.00 0.00 0.00 0.00 0.00 0.00 0.01 0.01 0.00 0.01 0.00 0.00 0.00 0.01 0.01 0.00 0.00 0.00 0.00 0.00
0.00 0.00 0.00 0.00 0.01 0.02 0.01 0.01 0.00 0.00 0.00 0.00 0.00 0.00 0.00 0.00 0.00 0.00 0.00 0.02 0.01 0.01 0.04 0.00 0.00 0.00 0.00 0.01 0.00 0.00 0.00 0.00 0.00
0.00 0.00 0.00 0.00 0.01 0.02 0.01 0.00 0.00 0.00 0.00 0.00 0.00 0.00 0.00 0.00 0.00 0.00 0.00 0.01 0.02 0.02 0.03 0.00 0.00 0.00 0.00 0.00 0.00 0.00 0.00 0.00 0.00
0.00 0.00 0.00 0.00 0.01 0.02 0.01 0.00 0.00 0.00 0.00 0.00 0.00 0.00 0.00 0.00 0.00 0.00 0.00 0.02 0.02 0.01 0.02 0.04 0.02 0.01 0.00 0.00 0.00 0.00 0.00 0.00 0.00
0.00 0.00 0.00 0.00 0.00 0.01 0.00 0.00 0.00 0.00 0.00 0.00 0.00 0.00 0.00 0.00 0.00 0.00 0.00 0.00 0.05 0.04 0.02 0.05 0.03 0.02 0.00 0.00 0.00 0.00 0.00 0.00 0.00
0.00 0.00 0.00 0.00 0.00 0.00 0.00 0.00 0.00 0.00 0.00 0.00 0.00 0.00 0.00 0.00 0.00 0.00 0.00 0.00 0.01 0.01 0.00 0.10 0.09 0.01 0.00 0.00 0.00 0.00 0.00 0.00 0.00
0.00 0.00 0.00 0.00 0.00 0.00 0.00 0.00 0.00 0.00 0.00 0.00 0.00 0.00 0.00 0.00 0.00 0.00 0.00 0.00 0.00 0.00 0.00 0.05 0.10 0.02 0.00 0.00 0.00 0.00 0.00 0.00 0.00
0.00 0.00 0.00 0.00 0.00 0.00 0.00 0.00 0.00 0.00 0.00 0.00 0.00 0.00 0.00 0.00 0.00 0.00 0.00 0.00 0.00 0.00 0.00 0.00 0.04 0.04 0.03 0.01 0.00 0.00 0.00 0.00 0.00
0.00 0.00 0.00 0.00 0.00 0.00 0.00 0.00 0.00 0.00 0.00 0.00 0.00 0.00 0.00 0.00 0.00 0.00 0.00 0.00 0.00 0.00 0.00 0.00 0.00 0.03 0.06 0.04 0.02 0.00 0.00 0.00 0.00
0.00 0.00 0.00 0.00 0.00 0.00 0.00 0.00 0.00 0.00 0.00 0.00 0.00 0.00 0.00 0.00 0.00 0.00 0.00 0.00 0.00 0.00 0.00 0.00 0.00 0.00 0.05 0.05 0.02 0.00 0.00 0.00 0.00
0.00 0.00 0.00 0.00 0.00 0.00 0.00 0.00 0.00 0.00 0.00 0.00 0.00 0.00 0.00 0.00 0.00 0.00 0.00 0.00 0.00 0.00 0.00 0.00 0.00 0.00 0.00 0.03 0.02 0.00 0.00 0.00 0.00
0.00 0.00 0.00 0.00 0.00 0.00 0.00 0.00 0.00 0.00 0.00 0.00 0.00 0.00 0.00 0.00 0.00 0.00 0.00 0.00 0.00 0.00 0.00 0.00 0.00 0.00 0.00 0.00 0.02 0.02 0.00 0.00 0.00
0.00 0.00 0.00 0.00 0.00 0.00 0.00 0.00 0.00 0.00 0.00 0.00 0.00 0.00 0.00 0.00 0.00 0.00 0.00 0.00 0.00 0.00 0.00 0.00 0.00 0.00 0.00 0.00 0.01 0.02 0.01 0.00 0.00
0.00 0.00 0.00 0.00 0.00 0.00 0.00 0.00 0.00 0.00 0.00 0.00 0.00 0.00 0.00 0.00 0.00 0.00 0.00 0.00 0.00 0.00 0.00 0.00 0.00 0.00 0.00 0.00 0.00 0.00 0.01 0.00 0.00
0.00 0.00 0.00 0.00 0.00 0.00 0.00 0.00 0.00 0.00 0.00 0.00 0.00 0.00 0.00 0.00 0.00 0.00 0.00 0.00 0.00 0.00 0.00 0.00 0.00 0.00 0.00 0.00 0.00 0.00 0.00 0.00 0.00
0.00 0.00 0.00 0.00 0.00 0.00 0.00 0.00 0.00 0.00 0.00 0.00 0.00 0.00 0.00 0.00 0.00 0.00 0.00 0.00 0.00 0.00 0.00 0.00 0.00 0.00 0.00 0.00 0.00 0.00 0.00 0.00 0.00
MSLP
1017.55 1017.67 1017.73 1017.78 1017.93 1017.96 1018.08 1017.98 1018.03 1018.07 1017.88 1017.98 1018.02 1018.15 1017.93 1017.63 1017.21 1017.19 1017.33 1017.16 1017.78 1017.94 1017.99 1018.05 1018.04 1018.12 1018.21 1018.25 1018.46 1018.45 1018.65 1018.79 1018.84
1017.78 1017.95 1017.99 1018.07 1018.06 1018.16 1018.24 1018.20 1018.32 1018.24 1018.12 1018.26 1018.27 1018.40 1018.22 1017.52 1017.50 1017.39 1017.36 1017.75 1018.04 1018.10 1018.24 1018.32 1018.29 1018.42 1018.51 1018.55 1018.72 1018.82 1018.88 1019.06 1019.21
1018.07 1018.31 1018.33 1018.25 1018.20 1018.23 1018.41 1018.48 1018.49 1018.44 1018.45 1018.58 1018.58 1018.62 1018.36 1017.87 1017.71 1017.74 1017.80 1018.39 1018.37 1018.42 1018.52 1018.54 1018.63 1018.68 1018.80 1018.91 1018.95 1019.05 1019.26 1019.33 1019.45
1018.31 1018.34 1018.43 1018.38 1018.38 1018.42 1018.43 1018.57 1018.60 1018.65 1018.71 1018.82 1018.88 1018.88 1018.68 1017.89 1018.04 1017.94 1017.93 1018.55 1018.68 1018.84 1018.76 1018.83 1018.88 1018.98 1019.07 1019.26 1019.37 1019.42 1019.54 1019.67 1019.76
1018.34 1018.40 1018.48 1018.50 1018.50 1018.49 1018.64 1018.62 1018.85 1019.01 1019.16 1019.26 1019.23 1019.15 1018.73 1018.28 1018.26 1018.06 1018.51 1018.82 1018.84 1019.01 1019.06 1019.07 1019.23 1019.21 1019.31 1019.49 1019.70 1019.82 1019.90 1019.98 1020.09
1018.28 1018.79 1018.59 1018.59 1018.58 1018.63 1018.79 1018.90 1019.21 1019.45 1019.66 1019.66 1019.57 1019.10 1018.48 1018.35 1018.31 1018.51 1019.25 1019.09 1019.06 1019.16 1019.34 1019.27 1019.42 1019.57 1019.65 1019.85 1019.99 1020.11 1020.13 1020.30 1020.28
1018.40 1018.83 1018.85 1018.59 1018.68 1018.91 1019.04 1019.31 1019.59 1019.57 1019.17 1019.49 1019.58 1018.98 1018.90 1018.89 1018.90 1019.28 1019.62 1019.27 1019.35 1019.49 1019.61 1019.52 1019.65 1019.83 1020.03 1020.19 1020.40 1020.48 1020.51 1020.60 1020.64
1018.41 1018.42 1018.56 1018.46 1018.76 1019.00 1019.34 1019.59 1019.26 1019.48 1019.59 1019.80 1020.02 1019.96 1019.44 1019.30 1019.46 1020.26 1019.94 1019.59 1019.50 1019.67 1019.78 1019.74 1019.85 1020.07 1020.28 1020.60 1020.68 1020.85 1020.93 1020.97 1021.02
1018.66 1018.47 1018.53 1018.68 1018.82 1018.82 1018.98 1019.43 1019.73 1019.75 1020.01 1020.32 1020.55 1020.60 1020.66 1020.40 1019.99 1020.67 1020.40 1019.97 1019.83 1019.88 1019.96 1020.05 1020.12 1020.24 1020.50 1020.68 1020.93 1021.09 1021.15 1021.18 1021.17
1018.86 1018.77 1018.75 1018.71 1019.00 1019.45 1019.63 1019.84 1020.00 1020.32 1020.65 1020.88 1020.95 1021.01 1021.17 1021.15 1020.93 1020.92 1021.04 1020.62 1020.24 1020.16 1020.14 1020.20 1020.25 1020.40 1020.53 1020.80 1021.08 1021.15 1021.16 1021.24 1021.31
1019.04 1019.08 1019.06 1019.07 1019.11 1019.18 1019.52 1019.96 1020.19 1020.74 1021.08 1021.36 1021.49 1021.59 1021.59 1021.50 1021.59 1021.24 1021.32 1021.41 1021.00 1020.60 1020.40 1020.44 1020.55 1020.55 1020.62 1021.00 1021.17 1021.25 1021.28 1021.32 1021.41
1019.20 1019.22 1019.24 1019.15 1019.34 1019.46 1019.54 1020.34 1020.55 1021.10 1021.46 1021.76 1021.73 1021.92 1022.12 1021.92 1021.85 1021.63 1021.52 1021.41 1021.71 1021.40 1020.95 1020.76 1020.77 1020.82 1020.85 1021.02 1021.24 1021.39 1021.33 1021.34 1021.37
1019.28 1019.28 1019.27 1019.48 1019.63 1019.63 1019.66 1019.92 1020.83 1021.35 1021.83 1022.14 1022.37 1022.21 1022.31 1022.58 1022.33 1022.36 1022.23 1021.88 1021.69 1021.78 1021.56 1021.55 1021.20 1021.11 1021.14 1021.20 1021.31 1021.57 1021.64 1021.60 1021.56
1019.20 1019.26 1019.33 1019.68 1019.69 1019.76 1019.76 1019.96 1020.36 1021.29 1022.02 1022.47 1022.81 1022.98 1022.96 1023.02 1022.85 1022.81 1022.61 1022.30 1022.13 1021.76 1022.12 1022.06 1021.80 1021.55 1021.42 1021.42 1021.48 1021.75 1021.85 1021.80 1021.85
1019.26 1019.36 1019.52 1019.68 1019.66 1019.85 1020.03 1020.20 1020.58 1021.23 1021.99 1022.55 1023.08 1023.29 1023.34 1023.30 1022.86 1022.71 1022.59 1022.65 1022.49 1022.29 1022.29 1022.43 1022.35 1022.22 1021.75 1021.78 1021.76 1021.91 1022.07 1022.20 1022.36
1019.26 1019.30 1019.51 1019.71 1019.68 1019.88 1020.51 1020.74 1021.08 1021.71 1022.26 1022.51 1023.24 1023.39 1023.41 1023.30 1023.03 1022.75 1022.66 1022.75 1022.76 1022.73 1022.53 1022.65 1022.93 1022.65 1022.42 1022.01 1022.10 1022.17 1022.37 1022.58 1022.69
1019.33 1019.36 1019.43 1019.60 1019.69 1019.85 1020.51 1020.83 1021.25 1021.83 1022.01 1022.08 1022.39 1022.59 1022.84 1022.89 1022.99 1022.89 1022.91 1022.88 1022.89 1022.83 1022.84 1022.86 1022.86 1022.95 1022.93 1022.72 1022.28 1022.50 1022.60 1022.81 1023.01
1019.48 1019.48 1019.48 1019.53 1019.58 1019.69 1020.04 1020.56 1020.72 1021.17 1021.94 1021.97 1021.51 1021.88 1021.28 1021.50 1022.31 1022.63 1022.77 1022.81 1022.72 1022.87 1023.00 1023.07 1023.10 1023.15 1023.02 1023.08 1022.71 1022.79 1022.91 1022.99 1023.36
1019.55 1019.59 1019.59 1019.55 1019.63 1019.65 1019.75 1019.96 1020.33 1020.36 1020.79 1021.80 1021.85 1021.75 1021.40 1021.09 1021.50 1022.17 1022.48 1022.68 1022.69 1022.79 1022.94 1023.01 1023.17 1023.38 1023.40 1023.48 1023.24 1023.25 1023.29 1023.38 1023.45
1019.59 1019.72 1019.68 1019.64 1019.66 1019.63 1019.67 1019.90 1020.08 1020.12 1020.08 1020.60 1021.06 1021.53 1021.60 1021.39 1020.82 1020.82 1021.68 1022.35 1022.45 1022.61 1022.72 1022.84 1022.98 1023.23 1023.46 1023.44 1023.45 1023.51 1023.49 1023.47 1023.52
Thickness
5674 5674 5673 5674 5675 5677 5676 5679 5680 5680 5684 5685 5686 5687 5690 5692 5696 5699 5699 5700 5697 5696 5697 5698 5698 5699 5699 5700 5700 5701 5700 5699 5699
5673 5671 5671 5669 5670 5673 5673 5676 5677 5679 5681 5682 5683 5684 5686 5691 5692 5695 5695 5693 5693 5694 5693 5693 5695 5694 5695 5696 5695 5695 5695 5695 5694
5671 5669 5668 5668 5667 5668 5670 5672 5675 5676 5676 5678 5680 5681 5683 5685 5688 5689 5690 5688 5688 5689 5688 5689 5690 5690 5690 5689 5690 5690 5689 5690 5690
5670 5670 5668 5667 5665 5663 5668 5671 5672 5673 5674 5675 5676 5677 5678 5683 5683 5685 5686 5684 5683 5683 5685 5685 5685 5685 5685 5684 5684 5685 5685 5685 5685
5669 5669 5668 5666 5666 5665 5667 5668 5668 5668 5668 5670 5671 5672 5675 5678 5679 5681 5679 5678 5679 5678 5679 5680 5679 5680 5681 5680 5680 5680 5680 5681 5679
5668 5665 5666 5667 5666 5666 5665 5665 5664 5664 5663 5665 5667 5671 5674 5676 5676 5676 5672 5674 5675 5675 5675 5676 5675 5675 5676 5675 5676 5676 5676 5676 5676
5666 5663 5664 5665 5665 5663 5663 5663 5661 5661 5664 5664 5665 5669 5670 5671 5671 5669 5668 5672 5671 5671 5670 5673 5673 5672 5671 5671 5670 5671 5672 5671 5671
5664 5664 5663 5663 5661 5660 5659 5658 5660 5660 5661 5661 5660 5661 5664 5666 5665 5662 5665 5668 5668 5668 5668 5670 5670 5668 5667 5665 5666 5665 5665 5665 5665
5659 5661 5661 5660 5659 5659 5658 5656 5655 5656 5656 5655 5654 5653 5653 5655 5659 5655 5659 5663 5664 5664 5665 5665 5665 5665 5663 5662 5661 5660 5660 5660 5661
5655 5656 5656 5657 5655 5652 5651 5650 5650 5649 5648 5648 5647 5647 5647 5648 5650 5649 5651 5655 5658 5659 5660 5660 5660 5660 5660 5659 5656 5656 5656 5656 5656
5650 5650 5650 5651 5651 5650 5649 5646 5645 5642 5640 5639 5639 5639 5640 5641 5641 5643 5644 5646 5649 5652 5654 5654 5654 5655 5656 5653 5652 5651 5651 5651 5650
5644 5645 5645 5646 5645 5644 5644 5639 5638 5635 5632 5630 5630 5630 5631 5633 5633 5636 5637 5639 5640 5642 5645 5647 5648 5648 5649 5648 5646 5645 5646 5645 5646
5638 5639 5640 5639 5639 5639 5639 5637 5630 5627 5624 5622 5621 5622 5622 5622 5624 5625 5627 5630 5633 5634 5637 5637 5640 5641 5641 5641 5641 5638 5638 5639 5638
5633 5633 5633 5632 5632 5632 5633 5632 5630 5623 5617 5614 5612 5611 5612 5612 5614 5615 5618 5620 5623 5626 5627 5628 5631 5632 5632 5634 5634 5631 5631 5632 5631
5626 5625 5625 5625 5625 5625 5625 5625 5624 5619 5612 5608 5603 5602 5603 5604 5607 5608 5610 5610 5613 5615 5617 5618 5618 5621 5623 5624 5626 5624 5623 5622 5620
5617 5618 5617 5617 5619 5618 5614 5614 5613 5608 5604 5603 5597 5596 5595 5597 5600 5602 5602 5602 5603 5604 5607 5608 5608 5609 5612 5614 5615 5616 5614 5612 5611
5608 5608 5609 5609 5610 5610 5606 5604 5603 5598 5599 5600 5599 5601 5599 5594 5593 5594 5593 5594 5595 5596 5597 5598 5599 5599 5601 5603 5606 5607 5606 5603 5602
5599 5600 5600 5600 5601 5603 5601 5598 5598 5596 5590 5591 5599 5595 5604 5602 5592 5589 5588 5588 5589 5588 5588 5589 5590 5590 5591 5591 5595 5595 5596 5594 5591
5589 5590 5590 5591 5591 5592 5593 5592 5591 5593 5592 5582 5583 5585 5590 5594 5591 5584 5582 5581 5581 5581 5580 5580 5581 5581 5581 5582 5584 5584 5584 5584 5583
5577 5577 5578 5580 5580 5580 5582 5581 5582 5583 5585 5582 5579 5576 5576 5579 5587 5589 5580 5574 5574 5573 5573 5573 5572 5572 5572 5572 5573 5573 5573 5575 5574